AirNav   Everest Fuels
 
 358 users online  

79PN Geisinger Rooftop Heliport
Danville, Pennsylvania, USA

GOING TO DANVILLE?


FAA INFORMATION EFFECTIVE 21 MAY 2020

Location

FAA Identifier: 79PN
Lat/Long: 40-58-04.4076N 076-36-20.5956W
40-58.073460N 076-36.343260W
40.9678910,-76.6057210
(estimated)
Elevation: 673.9 ft. / 205 m (estimated)
Variation: 12W (2005)
Time zone: UTC -4 (UTC -5 during Standard Time)
Zip code: 17821

Heliport Operations

Heliport use: Private use. Permission required prior to landing
Activation date: 02/1982
Control tower: no
ARTCC: NEW YORK CENTER
FSS: WILLIAMSPORT FLIGHT SERVICE STATION
NOTAMs facility: FDC (NOTAM-D service not available)
Attendance: CONTINUOUS
Wind indicator: lighted
Segmented circle: no

Heliport Communications

UNICOM: 123.05
WX AWOS-3: 118.075 (570-271-8192)
WILKES-BARRE APPROACH: 126.3
WILKES-BARRE DEPARTURE: 126.3
HERUB DP: 120.95
MUDDR DP: 126.3
WX AWOS-3 at N79 (8 nm S): 119.175 (570-672-0389)
WX ASOS at SEG (15 nm SW): 123.975 (570-374-4099)
WX AWOS-3 at ZER (19 nm SE): 127.575 (570-544-2778)

Nearby radio navigation aids

VOR radial/distance  VOR name  Freq  Var
MIPr150/4.3MILTON VORTAC109.2009W
SEGr058/16.5SELINSGROVE VOR/DME110.4008W
FQMr170/23.5WILLIAMSPORT VOR/DME114.4009W
RAVr010/24.9RAVINE VORTAC114.6011W

 
NDB name  Hdg/Dist  Freq  Var  ID
BELLGROVE006/32.032810WBZJ -... --.. .---

Heliport Services

Runway Information

Helipad H1

Dimensions: 60 x 50 ft. / 18 x 15 m
Surface: ROOF/TOP, in fair condition
ALUMINUM SURFACE, ROOFTOP FACILITY.
Latitude: 40-58.073460N
Longitude: 076-36.343260W
Elevation: 673.9 ft.
Traffic pattern: leftleft
Markings: none, in fair condition

Heliport Ownership and Management from official FAA records

Ownership: Privately-owned
Owner: GEISINGER MEDICAL CENTER
100 NORTH ACADEMY DRIVE
DANVILLE, PA 17822
Phone 570-271-5120
Manager: RICHARD SMITH
GEISINGER MEDICAL CENTER, 100 NORTH ACADEMY DRIVE
DANVILLE, PA 17822-2005
Phone 570-271-5124

Additional Remarks

FOR CD CTC WILKES-BARRE APCH AT 570-655-2084.

Instrument Procedures

There are no published instrument procedures at 79PN.

Some nearby airports with instrument procedures:

8N8 - Danville Airport (2 nm SW)
N13 - Bloomsburg Municipal Airport (8 nm E)
N79 - Northumberland County Airport (8 nm S)
KSEG - Penn Valley Airport (15 nm SW)
KZER - Schuylkill County/Joe Zerbey Airport (19 nm SE)
 
Loc | Ops | Rwys | IFR | FBO | Links
Com | Nav | Svcs | Stats | Notes
Area around 79PN (Geisinger Rooftop Heliport)
 
Road maps at: MapQuest Bing Google
 
Aerial photo
WARNING: Photo may not be current or correct
Aerial photo of 79PN (Geisinger Rooftop Heliport)
Taken in 2008

Do you have a better or more recent aerial photo of Geisinger Rooftop Heliport that you would like to share? If so, please send us your photo.

 
Sectional chart

 
Airport distance calculator
Flying to Geisinger Rooftop Heliport? Find the distance to fly.

From to 79PN

Sunrise and sunset
Times for 06-Jun-2020
 Local
(UTC-4)
 Zulu
(UTC)
Morning civil twilight05:0209:02
Sunrise05:3609:36
Sunset20:3500:35
Evening civil twilight21:0801:08

Current date and time
Zulu (UTC)  06-Jun-2020 07:26:00
Local (UTC-4)  06-Jun-2020 03:26:00
 
METAR
KSEG 
15nm SW 
060653Z AUTO 00000KT 3SM BR CLR 18/18 A2983 RMK AO2 SLP098 T01830178
KIPT 
22nm NW 
060654Z AUTO 00000KT 7SM OVC003 19/18 A2982 RMK AO2 SLP094 T01940183
KHZL 
28nm E 
060655Z AUTO 00000KT 3SM BR CLR 16/16 A2990 RMK AO2
TAF
KIPT 
22nm NW 
060529Z 0606/0706 00000KT P6SM SCT150 FM060800 00000KT 3SM BR BKN150 TEMPO 0609/0612 1SM BR BKN005 FM061200 27005KT P6SM BKN050 TEMPO 0615/0617 3SM -SHRA BR OVC025 FM061700 29010G20KT P6SM SCT050 FM070000 33005KT P6SM FEW060
NOTAMs
Click for the latest NOTAMs
NOTAMs are issued by the DoD/FAA and will open in a separate window not controlled by AirNav.

 

 
 

Would you like to see your business listed on this page?

 If your business provides an interesting product or service to pilots, flight crews, aircraft, or users of the Geisinger Rooftop Heliport, you should consider listing it here.  To start the listing process, click on the button below
 
Add a business
 

Other Pages about Geisinger Rooftop Heliport

Update a link
 
Copyright © AirNav, LLC. All rights reserved. Privacy Policy  Contact